station,date_time,water_elev
363514089134101,05/01/2011 07:06,300.22
363514089134101,05/01/2011 07:07,300.22
363514089134101,05/01/2011 07:08,300.23
363514089134101,05/01/2011 07:09,300.23
363514089134101,05/01/2011 07:10,300.23
363514089134101,05/01/2011 07:11,300.23
363514089134101,05/01/2011 07:12,300.24
363514089134101,05/01/2011 07:13,300.24
363514089134101,05/01/2011 07:14,300.24
363514089134101,05/01/2011 07:15,300.25
363514089134101,05/01/2011 07:16,300.25
363514089134101,05/01/2011 07:17,300.24
363514089134101,05/01/2011 07:18,300.25
363514089134101,05/01/2011 07:19,300.25
363514089134101,05/01/2011 07:20,300.25
363514089134101,05/01/2011 07:21,300.25
363514089134101,05/01/2011 07:22,300.24
363514089134101,05/01/2011 07:23,300.25
363514089134101,05/01/2011 07:24,300.25
363514089134101,05/01/2011 07:25,300.25
363514089134101,05/01/2011 07:26,300.26
363514089134101,05/01/2011 07:27,300.26
363514089134101,05/01/2011 07:28,300.26
363514089134101,05/01/2011 07:29,300.26
363514089134101,05/01/2011 07:30,300.26
363514089134101,05/01/2011 07:31,300.26
363514089134101,05/01/2011 07:32,300.26
363514089134101,05/01/2011 07:33,300.27
363514089134101,05/01/2011 07:34,300.29
363514089134101,05/01/2011 07:35,300.28
363514089134101,05/01/2011 07:36,300.28
363514089134101,05/01/2011 07:37,300.29
363514089134101,05/01/2011 07:38,300.29
363514089134101,05/01/2011 07:39,300.29
363514089134101,05/01/2011 07:40,300.3
363514089134101,05/01/2011 07:41,300.29
363514089134101,05/01/2011 07:42,300.3
363514089134101,05/01/2011 07:43,300.29
363514089134101,05/01/2011 07:44,300.3
363514089134101,05/01/2011 07:45,300.3
363514089134101,05/01/2011 07:46,300.3
363514089134101,05/01/2011 07:47,300.3
363514089134101,05/01/2011 07:48,300.3
363514089134101,05/01/2011 07:49,300.3
363514089134101,05/01/2011 07:50,300.3
363514089134101,05/01/2011 07:51,300.29
363514089134101,05/01/2011 07:52,300.31
363514089134101,05/01/2011 07:53,300.31
363514089134101,05/01/2011 07:54,300.32
363514089134101,05/01/2011 07:55,300.32
363514089134101,05/01/2011 07:56,300.32
363514089134101,05/01/2011 07:57,300.33
363514089134101,05/01/2011 07:58,300.33
363514089134101,05/01/2011 07:59,300.33
363514089134101,05/01/2011 08:00,300.33
363514089134101,05/01/2011 08:01,300.33
363514089134101,05/01/2011 08:02,300.34
363514089134101,05/01/2011 08:03,300.34
363514089134101,05/01/2011 08:04,300.34
363514089134101,05/01/2011 08:05,300.33
363514089134101,05/01/2011 08:06,300.34
363514089134101,05/01/2011 08:07,300.34
363514089134101,05/01/2011 08:08,300.34
363514089134101,05/01/2011 08:09,300.34
363514089134101,05/01/2011 08:10,300.34
363514089134101,05/01/2011 08:11,300.35
363514089134101,05/01/2011 08:12,300.34
363514089134101,05/01/2011 08:13,300.35
363514089134101,05/01/2011 08:14,300.35
363514089134101,05/01/2011 08:15,300.36
363514089134101,05/01/2011 08:16,300.34
363514089134101,05/01/2011 08:17,300.37
363514089134101,05/01/2011 08:18,300.35
363514089134101,05/01/2011 08:19,300.35
363514089134101,05/01/2011 08:20,300.34
363514089134101,05/01/2011 08:21,300.35
363514089134101,05/01/2011 08:22,300.36
363514089134101,05/01/2011 08:23,300.34
363514089134101,05/01/2011 08:24,300.35
363514089134101,05/01/2011 08:25,300.38
363514089134101,05/01/2011 08:26,300.35
363514089134101,05/01/2011 08:27,300.36
363514089134101,05/01/2011 08:28,300.36
363514089134101,05/01/2011 08:29,300.36
363514089134101,05/01/2011 08:30,300.36
363514089134101,05/01/2011 08:31,300.37
363514089134101,05/01/2011 08:32,300.38
363514089134101,05/01/2011 08:33,300.38
363514089134101,05/01/2011 08:34,300.38
363514089134101,05/01/2011 08:35,300.39
363514089134101,05/01/2011 08:36,300.38
363514089134101,05/01/2011 08:37,300.37
363514089134101,05/01/2011 08:38,300.39
363514089134101,05/01/2011 08:39,300.39
363514089134101,05/01/2011 08:40,300.39
363514089134101,05/01/2011 08:41,300.4
363514089134101,05/01/2011 08:42,300.41
363514089134101,05/01/2011 08:43,300.4
363514089134101,05/01/2011 08:44,300.39
363514089134101,05/01/2011 08:45,300.41
363514089134101,05/01/2011 08:46,300.4
363514089134101,05/01/2011 08:47,300.4
363514089134101,05/01/2011 08:48,300.41
363514089134101,05/01/2011 08:49,300.41
363514089134101,05/01/2011 08:50,300.39
363514089134101,05/01/2011 08:51,300.39
363514089134101,05/01/2011 08:52,300.38
363514089134101,05/01/2011 08:53,300.41
363514089134101,05/01/2011 08:54,300.43
363514089134101,05/01/2011 08:55,300.41
363514089134101,05/01/2011 08:56,300.42
363514089134101,05/01/2011 08:57,300.41
363514089134101,05/01/2011 08:58,300.42
363514089134101,05/01/2011 08:59,300.42
363514089134101,05/01/2011 09:00,300.44
363514089134101,05/01/2011 09:01,300.42
363514089134101,05/01/2011 09:02,300.42
363514089134101,05/01/2011 09:03,300.42
363514089134101,05/01/2011 09:04,300.43
363514089134101,05/01/2011 09:05,300.44
363514089134101,05/01/2011 09:06,300.44
363514089134101,05/01/2011 09:07,300.43
363514089134101,05/01/2011 09:08,300.42
363514089134101,05/01/2011 09:09,300.44
363514089134101,05/01/2011 09:10,300.43
363514089134101,05/01/2011 09:11,300.46
363514089134101,05/01/2011 09:12,300.44
363514089134101,05/01/2011 09:13,300.44
363514089134101,05/01/2011 09:14,300.44
363514089134101,05/01/2011 09:15,300.44
363514089134101,05/01/2011 09:16,300.44
363514089134101,05/01/2011 09:17,300.46
363514089134101,05/01/2011 09:18,300.44
363514089134101,05/01/2011 09:19,300.44
363514089134101,05/01/2011 09:20,300.45
363514089134101,05/01/2011 09:21,300.44
363514089134101,05/01/2011 09:22,300.44
363514089134101,05/01/2011 09:23,300.46
363514089134101,05/01/2011 09:24,300.46
363514089134101,05/01/2011 09:25,300.45
363514089134101,05/01/2011 09:26,300.46
363514089134101,05/01/2011 09:27,300.46
363514089134101,05/01/2011 09:28,300.46
363514089134101,05/01/2011 09:29,300.46
363514089134101,05/01/2011 09:30,300.46
363514089134101,05/01/2011 09:31,300.47
363514089134101,05/01/2011 09:32,300.47
363514089134101,05/01/2011 09:33,300.48
363514089134101,05/01/2011 09:34,300.47
363514089134101,05/01/2011 09:35,300.46
363514089134101,05/01/2011 09:36,300.47
363514089134101,05/01/2011 09:37,300.48
363514089134101,05/01/2011 09:38,300.47
363514089134101,05/01/2011 09:39,300.47
363514089134101,05/01/2011 09:40,300.49
363514089134101,05/01/2011 09:41,300.47
363514089134101,05/01/2011 09:42,300.49
363514089134101,05/01/2011 09:43,300.49
363514089134101,05/01/2011 09:44,300.48
363514089134101,05/01/2011 09:45,300.48
363514089134101,05/01/2011 09:46,300.48
363514089134101,05/01/2011 09:47,300.49
363514089134101,05/01/2011 09:48,300.49
363514089134101,05/01/2011 09:49,300.49
363514089134101,05/01/2011 09:50,300.5
363514089134101,05/01/2011 09:51,300.5
363514089134101,05/01/2011 09:52,300.5
363514089134101,05/01/2011 09:53,300.51
363514089134101,05/01/2011 09:54,300.5
363514089134101,05/01/2011 09:55,300.5
363514089134101,05/01/2011 09:56,300.5
363514089134101,05/01/2011 09:57,300.5
363514089134101,05/01/2011 09:58,300.5
363514089134101,05/01/2011 09:59,300.51
363514089134101,05/01/2011 10:00,300.51
363514089134101,05/01/2011 10:01,300.51
363514089134101,05/01/2011 10:02,300.51
363514089134101,05/01/2011 10:03,300.52
363514089134101,05/01/2011 10:04,300.51
363514089134101,05/01/2011 10:05,300.52
363514089134101,05/01/2011 10:06,300.51
363514089134101,05/01/2011 10:07,300.51
363514089134101,05/01/2011 10:08,300.52
363514089134101,05/01/2011 10:09,300.52
363514089134101,05/01/2011 10:10,300.52
363514089134101,05/01/2011 10:11,300.52
363514089134101,05/01/2011 10:12,300.51
363514089134101,05/01/2011 10:13,300.53
363514089134101,05/01/2011 10:14,300.53
363514089134101,05/01/2011 10:15,300.52
363514089134101,05/01/2011 10:16,300.52
363514089134101,05/01/2011 10:17,300.53
363514089134101,05/01/2011 10:18,300.54
363514089134101,05/01/2011 10:19,300.54
363514089134101,05/01/2011 10:20,300.54
363514089134101,05/01/2011 10:21,300.54
363514089134101,05/01/2011 10:22,300.53
363514089134101,05/01/2011 10:23,300.54
363514089134101,05/01/2011 10:24,300.54
363514089134101,05/01/2011 10:25,300.53
363514089134101,05/01/2011 10:26,300.54
363514089134101,05/01/2011 10:27,300.53
363514089134101,05/01/2011 10:28,300.54
363514089134101,05/01/2011 10:29,300.54
363514089134101,05/01/2011 10:30,300.55
363514089134101,05/01/2011 10:31,300.54
363514089134101,05/01/2011 10:32,300.53
363514089134101,05/01/2011 10:33,300.54
363514089134101,05/01/2011 10:34,300.53
363514089134101,05/01/2011 10:35,300.55
363514089134101,05/01/2011 10:36,300.55
363514089134101,05/01/2011 10:37,300.56
363514089134101,05/01/2011 10:38,300.56
363514089134101,05/01/2011 10:39,300.55
363514089134101,05/01/2011 10:40,300.56
363514089134101,05/01/2011 10:41,300.54
363514089134101,05/01/2011 10:42,300.56
363514089134101,05/01/2011 10:43,300.55
363514089134101,05/01/2011 10:44,300.55
363514089134101,05/01/2011 10:45,300.56
363514089134101,05/01/2011 10:46,300.56
363514089134101,05/01/2011 10:47,300.55
363514089134101,05/01/2011 10:48,300.55
363514089134101,05/01/2011 10:49,300.55
363514089134101,05/01/2011 10:50,300.56
363514089134101,05/01/2011 10:51,300.56
363514089134101,05/01/2011 10:52,300.56
363514089134101,05/01/2011 10:53,300.57
363514089134101,05/01/2011 10:54,300.57
363514089134101,05/01/2011 10:55,300.56
363514089134101,05/01/2011 10:56,300.58
363514089134101,05/01/2011 10:57,300.57
363514089134101,05/01/2011 10:58,300.57
363514089134101,05/01/2011 10:59,300.58
363514089134101,05/01/2011 11:00,300.57
363514089134101,05/01/2011 11:01,300.57
363514089134101,05/01/2011 11:02,300.57
363514089134101,05/01/2011 11:03,300.57
363514089134101,05/01/2011 11:04,300.57
363514089134101,05/01/2011 11:05,300.57
363514089134101,05/01/2011 11:06,300.57
363514089134101,05/01/2011 11:07,300.56
363514089134101,05/01/2011 11:08,300.58
363514089134101,05/01/2011 11:09,300.57
363514089134101,05/01/2011 11:10,300.57
363514089134101,05/01/2011 11:11,300.57
363514089134101,05/01/2011 11:12,300.57
363514089134101,05/01/2011 11:13,300.58
363514089134101,05/01/2011 11:14,300.58
363514089134101,05/01/2011 11:15,300.58
363514089134101,05/01/2011 11:16,300.58
363514089134101,05/01/2011 11:17,300.58
363514089134101,05/01/2011 11:18,300.58
363514089134101,05/01/2011 11:19,300.59
363514089134101,05/01/2011 11:20,300.58
363514089134101,05/01/2011 11:21,300.59
363514089134101,05/01/2011 11:22,300.59
363514089134101,05/01/2011 11:23,300.6
363514089134101,05/01/2011 11:24,300.59
363514089134101,05/01/2011 11:25,300.59
363514089134101,05/01/2011 11:26,300.58
363514089134101,05/01/2011 11:27,300.58
363514089134101,05/01/2011 11:28,300.59
363514089134101,05/01/2011 11:29,300.59
363514089134101,05/01/2011 11:30,300.6
363514089134101,05/01/2011 11:31,300.6
363514089134101,05/01/2011 11:32,300.6
363514089134101,05/01/2011 11:33,300.6
363514089134101,05/01/2011 11:34,300.6
363514089134101,05/01/2011 11:35,300.6
363514089134101,05/01/2011 11:36,300.59
363514089134101,05/01/2011 11:37,300.59
363514089134101,05/01/2011 11:38,300.58
363514089134101,05/01/2011 11:39,300.6
363514089134101,05/01/2011 11:40,300.6
363514089134101,05/01/2011 11:41,300.59
363514089134101,05/01/2011 11:42,300.59
363514089134101,05/01/2011 11:43,300.58
363514089134101,05/01/2011 11:44,300.59
363514089134101,05/01/2011 11:45,300.58
363514089134101,05/01/2011 11:46,300.59
363514089134101,05/01/2011 11:47,300.59
363514089134101,05/01/2011 11:48,300.59
363514089134101,05/01/2011 11:49,300.6
363514089134101,05/01/2011 11:50,300.6
363514089134101,05/01/2011 11:51,300.6
363514089134101,05/01/2011 11:52,300.61
363514089134101,05/01/2011 11:53,300.6
363514089134101,05/01/2011 11:54,300.61
363514089134101,05/01/2011 11:55,300.61
363514089134101,05/01/2011 11:56,300.61
363514089134101,05/01/2011 11:57,300.6
363514089134101,05/01/2011 11:58,300.58
363514089134101,05/01/2011 11:59,300.58
363514089134101,05/01/2011 12:00,300.6
363514089134101,05/01/2011 12:01,300.59
363514089134101,05/01/2011 12:02,300.58
363514089134101,05/01/2011 12:03,300.6
363514089134101,05/01/2011 12:04,300.61
363514089134101,05/01/2011 12:05,300.61
363514089134101,05/01/2011 12:06,300.6
363514089134101,05/01/2011 12:07,300.62
363514089134101,05/01/2011 12:08,300.62
363514089134101,05/01/2011 12:09,300.61
363514089134101,05/01/2011 12:10,300.62
363514089134101,05/01/2011 12:11,300.62
363514089134101,05/01/2011 12:12,300.63
363514089134101,05/01/2011 12:13,300.63
363514089134101,05/01/2011 12:14,300.62
363514089134101,05/01/2011 12:15,300.63
363514089134101,05/01/2011 12:16,300.62
363514089134101,05/01/2011 12:17,300.63
363514089134101,05/01/2011 12:18,300.62
363514089134101,05/01/2011 12:19,300.62
363514089134101,05/01/2011 12:20,300.62
363514089134101,05/01/2011 12:21,300.62
363514089134101,05/01/2011 12:22,300.62
363514089134101,05/01/2011 12:23,300.62
363514089134101,05/01/2011 12:24,300.62
363514089134101,05/01/2011 12:25,300.64
363514089134101,05/01/2011 12:26,300.62
363514089134101,05/01/2011 12:27,300.63
363514089134101,05/01/2011 12:28,300.63
363514089134101,05/01/2011 12:29,300.62
363514089134101,05/01/2011 12:30,300.62
363514089134101,05/01/2011 12:31,300.62
363514089134101,05/01/2011 12:32,300.61
363514089134101,05/01/2011 12:33,300.63
363514089134101,05/01/2011 12:34,300.63
363514089134101,05/01/2011 12:35,300.63
363514089134101,05/01/2011 12:36,300.63
363514089134101,05/01/2011 12:37,300.63
363514089134101,05/01/2011 12:38,300.62
363514089134101,05/01/2011 12:39,300.64
363514089134101,05/01/2011 12:40,300.63
363514089134101,05/01/2011 12:41,300.64
363514089134101,05/01/2011 12:42,300.65
363514089134101,05/01/2011 12:43,300.64
363514089134101,05/01/2011 12:44,300.63
363514089134101,05/01/2011 12:45,300.64
363514089134101,05/01/2011 12:46,300.64
363514089134101,05/01/2011 12:47,300.62
363514089134101,05/01/2011 12:48,300.64
363514089134101,05/01/2011 12:49,300.63
363514089134101,05/01/2011 12:50,300.65
363514089134101,05/01/2011 12:51,300.64
363514089134101,05/01/2011 12:52,300.63
363514089134101,05/01/2011 12:53,300.63
363514089134101,05/01/2011 12:54,300.62
363514089134101,05/01/2011 12:55,300.61
363514089134101,05/01/2011 12:56,300.62
363514089134101,05/01/2011 12:57,300.62
363514089134101,05/01/2011 12:58,300.63
363514089134101,05/01/2011 12:59,300.64
363514089134101,05/01/2011 13:00,300.64
363514089134101,05/01/2011 13:01,300.65
363514089134101,05/01/2011 13:02,300.66
363514089134101,05/01/2011 13:03,300.65
363514089134101,05/01/2011 13:04,300.66
363514089134101,05/01/2011 13:05,300.66
363514089134101,05/01/2011 13:06,300.65
363514089134101,05/01/2011 13:07,300.65
363514089134101,05/01/2011 13:08,300.65
363514089134101,05/01/2011 13:09,300.65
363514089134101,05/01/2011 13:10,300.65
363514089134101,05/01/2011 13:11,300.64
363514089134101,05/01/2011 13:12,300.64
363514089134101,05/01/2011 13:13,300.64
363514089134101,05/01/2011 13:14,300.64
363514089134101,05/01/2011 13:15,300.64
363514089134101,05/01/2011 13:16,300.63
363514089134101,05/01/2011 13:17,300.63
363514089134101,05/01/2011 13:18,300.64
363514089134101,05/01/2011 13:19,300.64
363514089134101,05/01/2011 13:20,300.64
363514089134101,05/01/2011 13:21,300.64
363514089134101,05/01/2011 13:22,300.65
363514089134101,05/01/2011 13:23,300.64
363514089134101,05/01/2011 13:24,300.64
363514089134101,05/01/2011 13:25,300.64
363514089134101,05/01/2011 13:26,300.65
363514089134101,05/01/2011 13:27,300.65
363514089134101,05/01/2011 13:28,300.65
363514089134101,05/01/2011 13:29,300.65
363514089134101,05/01/2011 13:30,300.64
363514089134101,05/01/2011 13:31,300.65
363514089134101,05/01/2011 13:32,300.66
363514089134101,05/01/2011 13:33,300.65
363514089134101,05/01/2011 13:34,300.65
363514089134101,05/01/2011 13:35,300.65
363514089134101,05/01/2011 13:36,300.67
363514089134101,05/01/2011 13:37,300.68
363514089134101,05/01/2011 13:38,300.66
363514089134101,05/01/2011 13:39,300.67
363514089134101,05/01/2011 13:40,300.67
363514089134101,05/01/2011 13:41,300.66
363514089134101,05/01/2011 13:42,300.66
363514089134101,05/01/2011 13:43,300.68
363514089134101,05/01/2011 13:44,300.67
363514089134101,05/01/2011 13:45,300.67
363514089134101,05/01/2011 13:46,300.67
363514089134101,05/01/2011 13:47,300.66
363514089134101,05/01/2011 13:48,300.65
363514089134101,05/01/2011 13:49,300.65
363514089134101,05/01/2011 13:50,300.65
363514089134101,05/01/2011 13:51,300.65
363514089134101,05/01/2011 13:52,300.65
363514089134101,05/01/2011 13:53,300.66
363514089134101,05/01/2011 13:54,300.65
363514089134101,05/01/2011 13:55,300.65
363514089134101,05/01/2011 13:56,300.64
363514089134101,05/01/2011 13:57,300.65
363514089134101,05/01/2011 13:58,300.65
363514089134101,05/01/2011 13:59,300.64
363514089134101,05/01/2011 14:00,300.65
363514089134101,05/01/2011 14:01,300.65
363514089134101,05/01/2011 14:02,300.64
363514089134101,05/01/2011 14:03,300.65
363514089134101,05/01/2011 14:04,300.66
363514089134101,05/01/2011 14:05,300.67
363514089134101,05/01/2011 14:06,300.67
363514089134101,05/01/2011 14:07,300.68
363514089134101,05/01/2011 14:08,300.68
363514089134101,05/01/2011 14:09,300.68
363514089134101,05/01/2011 14:10,300.67
363514089134101,05/01/2011 14:11,300.68
363514089134101,05/01/2011 14:12,300.67
363514089134101,05/01/2011 14:13,300.68
363514089134101,05/01/2011 14:14,300.68
363514089134101,05/01/2011 14:15,300.68
363514089134101,05/01/2011 14:16,300.69
363514089134101,05/01/2011 14:17,300.68
363514089134101,05/01/2011 14:18,300.7
363514089134101,05/01/2011 14:19,300.69
363514089134101,05/01/2011 14:20,300.69
363514089134101,05/01/2011 14:21,300.68
363514089134101,05/01/2011 14:22,300.68
363514089134101,05/01/2011 14:23,300.67
363514089134101,05/01/2011 14:24,300.66
363514089134101,05/01/2011 14:25,300.64
363514089134101,05/01/2011 14:26,300.64
363514089134101,05/01/2011 14:27,300.64
363514089134101,05/01/2011 14:28,300.64
363514089134101,05/01/2011 14:29,300.65
363514089134101,05/01/2011 14:30,300.66
363514089134101,05/01/2011 14:31,300.67
363514089134101,05/01/2011 14:32,300.65
363514089134101,05/01/2011 14:33,300.65
363514089134101,05/01/2011 14:34,300.64
363514089134101,05/01/2011 14:35,300.6
363514089134101,05/01/2011 14:36,300.6
363514089134101,05/01/2011 14:37,300.59
363514089134101,05/01/2011 14:38,300.59
363514089134101,05/01/2011 14:39,300.61
363514089134101,05/01/2011 14:40,300.61
363514089134101,05/01/2011 14:41,300.58
363514089134101,05/01/2011 14:42,300.6
363514089134101,05/01/2011 14:43,300.62
363514089134101,05/01/2011 14:44,300.6
363514089134101,05/01/2011 14:45,300.61
363514089134101,05/01/2011 14:46,300.59
363514089134101,05/01/2011 14:47,300.62
363514089134101,05/01/2011 14:48,300.63
363514089134101,05/01/2011 14:49,300.65
363514089134101,05/01/2011 14:50,300.65
363514089134101,05/01/2011 14:51,300.68
363514089134101,05/01/2011 14:52,300.72
363514089134101,05/01/2011 14:53,300.75
363514089134101,05/01/2011 14:54,300.79
363514089134101,05/01/2011 14:55,300.8
363514089134101,05/01/2011 14:56,300.84
363514089134101,05/01/2011 14:57,300.85
363514089134101,05/01/2011 14:58,300.92
363514089134101,05/01/2011 14:59,300.79
363514089134101,05/01/2011 15:00,300.81
363514089134101,05/01/2011 15:01,300.75
363514089134101,05/01/2011 15:02,300.73
363514089134101,05/01/2011 15:03,300.86
363514089134101,05/01/2011 15:04,300.73
363514089134101,05/01/2011 15:05,300.76
363514089134101,05/01/2011 15:06,300.7
363514089134101,05/01/2011 15:07,300.76
363514089134101,05/01/2011 15:08,300.71
363514089134101,05/01/2011 15:09,300.79
363514089134101,05/01/2011 15:10,300.78
363514089134101,05/01/2011 15:11,300.75
363514089134101,05/01/2011 15:12,300.72
363514089134101,05/01/2011 15:13,300.71
363514089134101,05/01/2011 15:14,300.68
363514089134101,05/01/2011 15:15,300.64
363514089134101,05/01/2011 15:16,300.72
363514089134101,05/01/2011 15:17,300.74
363514089134101,05/01/2011 15:18,300.73
363514089134101,05/01/2011 15:19,300.76
363514089134101,05/01/2011 15:20,300.7
363514089134101,05/01/2011 15:21,300.78
363514089134101,05/01/2011 15:22,300.83
363514089134101,05/01/2011 15:23,300.82
363514089134101,05/01/2011 15:24,300.87
363514089134101,05/01/2011 15:25,300.81
363514089134101,05/01/2011 15:26,300.84
363514089134101,05/01/2011 15:27,300.83
363514089134101,05/01/2011 15:28,300.84
363514089134101,05/01/2011 15:29,300.83
363514089134101,05/01/2011 15:30,300.87
363514089134101,05/01/2011 15:31,300.87
363514089134101,05/01/2011 15:32,300.92
363514089134101,05/01/2011 15:33,300.85
363514089134101,05/01/2011 15:34,300.86
363514089134101,05/01/2011 15:35,300.83
363514089134101,05/01/2011 15:36,300.84
363514089134101,05/01/2011 15:37,300.82
363514089134101,05/01/2011 15:38,300.81
363514089134101,05/01/2011 15:39,300.79
363514089134101,05/01/2011 15:40,300.8
363514089134101,05/01/2011 15:41,300.81
363514089134101,05/01/2011 15:42,300.79
363514089134101,05/01/2011 15:43,300.8
363514089134101,05/01/2011 15:44,300.81
363514089134101,05/01/2011 15:45,300.82
363514089134101,05/01/2011 15:46,300.82
363514089134101,05/01/2011 15:47,300.81
363514089134101,05/01/2011 15:48,300.82
363514089134101,05/01/2011 15:49,300.81
363514089134101,05/01/2011 15:50,300.81
363514089134101,05/01/2011 15:51,300.83
363514089134101,05/01/2011 15:52,300.81
363514089134101,05/01/2011 15:53,300.8
363514089134101,05/01/2011 15:54,300.8
363514089134101,05/01/2011 15:55,300.78
363514089134101,05/01/2011 15:56,300.77
363514089134101,05/01/2011 15:57,300.79
363514089134101,05/01/2011 15:58,300.8
363514089134101,05/01/2011 15:59,300.82
363514089134101,05/01/2011 16:00,300.83
363514089134101,05/01/2011 16:01,300.82
363514089134101,05/01/2011 16:02,300.84
363514089134101,05/01/2011 16:03,300.81
363514089134101,05/01/2011 16:04,300.82
363514089134101,05/01/2011 16:05,300.81
363514089134101,05/01/2011 16:06,300.81
363514089134101,05/01/2011 16:07,300.82
363514089134101,05/01/2011 16:08,300.82
363514089134101,05/01/2011 16:09,300.82
363514089134101,05/01/2011 16:10,300.83
363514089134101,05/01/2011 16:11,300.86
363514089134101,05/01/2011 16:12,300.84
363514089134101,05/01/2011 16:13,300.84
363514089134101,05/01/2011 16:14,300.83
363514089134101,05/01/2011 16:15,300.83
363514089134101,05/01/2011 16:16,300.83
363514089134101,05/01/2011 16:17,300.82
363514089134101,05/01/2011 16:18,300.82
363514089134101,05/01/2011 16:19,300.83
363514089134101,05/01/2011 16:20,300.84
363514089134101,05/01/2011 16:21,300.84
363514089134101,05/01/2011 16:22,300.81
363514089134101,05/01/2011 16:23,300.82
363514089134101,05/01/2011 16:24,300.84
363514089134101,05/01/2011 16:25,300.83
363514089134101,05/01/2011 16:26,300.82
363514089134101,05/01/2011 16:27,300.85
363514089134101,05/01/2011 16:28,300.88
363514089134101,05/01/2011 16:29,300.87
363514089134101,05/01/2011 16:30,300.86
363514089134101,05/01/2011 16:31,300.87
363514089134101,05/01/2011 16:32,300.86
363514089134101,05/01/2011 16:33,300.86
363514089134101,05/01/2011 16:34,300.86
363514089134101,05/01/2011 16:35,300.87
363514089134101,05/01/2011 16:36,300.88
363514089134101,05/01/2011 16:37,300.9
363514089134101,05/01/2011 16:38,300.9
363514089134101,05/01/2011 16:39,300.88
363514089134101,05/01/2011 16:40,300.89
363514089134101,05/01/2011 16:41,300.91
363514089134101,05/01/2011 16:42,300.93
363514089134101,05/01/2011 16:43,300.91
363514089134101,05/01/2011 16:44,300.9
363514089134101,05/01/2011 16:45,300.9
363514089134101,05/01/2011 16:46,300.89
363514089134101,05/01/2011 16:47,300.91
363514089134101,05/01/2011 16:48,300.9
363514089134101,05/01/2011 16:49,300.89
363514089134101,05/01/2011 16:50,300.92
363514089134101,05/01/2011 16:51,300.93